Houston, TX

4:22 AM CDT on June 24, 2017 (GMT -0500)
Hobby

Weather History for KHOU - August, 2013

Change the Weather History Date:

Sunday, August 4, 2013

  Actual Average Record
Temperature  
Mean Temperature 88 °F 85 °F  
Max Temperature 97 °F 95 °F 102 °F (1951)
Min Temperature 78 °F 75 °F 63 °F (1976)
Cooling Degree Days 23 20  
Month to date cooling degree days 89 80  
Year to date cooling degree days 1846 1853  
Since 1 June cooling degree days 1276 1201  
Growing Degree Days 38 (Base 50)    
Moisture  
Dew Point 75 °F    
Average Humidity 70    
Maximum Humidity 91    
Minimum Humidity 49    
Precipitation  
Precipitation 0.00 in 0.11 in 2.94 in (1975)
Month to date precipitation 0.00 0.41  
Year to date precipitation 17.87 28.52  
Sea Level Pressure  
Sea Level Pressure 30.04 in    
Wind  
Wind Speed 5 mph (South)    
Max Wind Speed 20 mph    
Max Gust Speed 24 mph    
Visibility 10 miles    
Events      
T = Trace of Precipitation, MM = Missing Value Source: NWS Daily Summary

Daily Weather History Graph

Daily Weather History Graph

Search for Another Location

Airport or City:

Trip Planner

Search our weather history database for the weather conditions in past years. The results will help you decide how hot, cold, wet, or windy it might be!

Date:

Astronomy

Aug. 04, 2013 Rise Set
Actual Time 6:42 AM CDT 8:11 PM CDT
Civil Twilight 6:17 AM CDT 8:36 PM CDT
Nautical Twilight 5:46 AM CDT 9:07 PM CDT
Astronomical Twilight 5:14 AM CDT 9:39 PM CDT
Moon 4:46 AM CDT (8/4) 6:34 PM CDT (8/4)
Length of Visible Light 14h 19m
Length of Day
13h 28m
Waning Crescent, 4% of the Moon is Illuminated
Aug 4
Waning Crescent
Aug 6
New
Aug 14
First Quarter
Aug 20
Full
Aug 28
Last Quarter

Hourly Weather History & Observations

Time (CDT) Temp. Heat Index Dew Point Humidity Pressure Visibility Wind Dir Wind Speed Gust Speed Precip Events Conditions
12:53 AM 81.0 °F 87.3 °F 75.9 °F 85% 30.06 in 10.0 mi South 3.5 mph - N/A   Partly Cloudy
1:53 AM 81.0 °F 87.3 °F 75.9 °F 85% 30.06 in 10.0 mi South 3.5 mph - N/A   Partly Cloudy
2:53 AM 81.0 °F 87.3 °F 75.9 °F 85% 30.05 in 10.0 mi South 3.5 mph - N/A   Partly Cloudy
3:53 AM 81.0 °F 87.3 °F 75.9 °F 85% 30.04 in 10.0 mi SSW 3.5 mph - N/A   Scattered Clouds
4:53 AM 80.1 °F 85.4 °F 75.9 °F 87% 30.04 in 10.0 mi South 3.5 mph - N/A   Partly Cloudy
5:53 AM 79.0 °F - 75.9 °F 90% 30.04 in 10.0 mi Calm Calm - N/A   Partly Cloudy
6:53 AM 79.0 °F - 75.9 °F 90% 30.06 in 10.0 mi Calm Calm - N/A   Scattered Clouds
7:53 AM 81.0 °F 87.9 °F 77.0 °F 88% 30.07 in 10.0 mi Calm Calm - N/A   Scattered Clouds
8:53 AM 84.9 °F 95.3 °F 77.0 °F 77% 30.09 in 10.0 mi SSW 5.8 mph - N/A   Scattered Clouds
9:53 AM 87.1 °F 96.3 °F 75.0 °F 67% 30.10 in 10.0 mi SW 6.9 mph - N/A   Mostly Cloudy
10:53 AM 90.0 °F 100.2 °F 75.0 °F 61% 30.09 in 10.0 mi SSW 8.1 mph - N/A   Scattered Clouds
11:53 AM 93.0 °F 103.2 °F 73.9 °F 54% 30.08 in 10.0 mi Calm Calm - N/A   Scattered Clouds
12:53 PM 93.0 °F 104.6 °F 75.0 °F 56% 30.06 in 10.0 mi SSE 10.4 mph - 0.00 in   Mostly Cloudy
1:53 PM 95.0 °F 105.2 °F 73.9 °F 50% 30.04 in 10.0 mi South 9.2 mph - N/A   Scattered Clouds
2:53 PM 96.1 °F 109.4 °F 75.9 °F 52% 30.02 in 10.0 mi SSE 17.3 mph 21.9 mph N/A   Mostly Cloudy
3:53 PM 91.0 °F 99.3 °F 73.0 °F 55% 30.01 in 10.0 mi South 11.5 mph - N/A   Mostly Cloudy
4:53 PM 90.0 °F 97.9 °F 73.0 °F 57% 30.00 in 10.0 mi South 8.1 mph - N/A   Mostly Cloudy
5:53 PM 93.0 °F 104.6 °F 75.0 °F 56% 29.99 in 10.0 mi SSE 11.5 mph - N/A   Mostly Cloudy
6:53 PM 91.0 °F 100.4 °F 73.9 °F 57% 29.99 in 10.0 mi SSE 12.7 mph 19.6 mph N/A   Mostly Cloudy
7:53 PM 88.0 °F 96.5 °F 73.9 °F 63% 30.01 in 10.0 mi South 11.5 mph 18.4 mph N/A   Mostly Cloudy
8:53 PM 86.0 °F 93.0 °F 73.0 °F 65% 30.01 in 10.0 mi South 10.4 mph - N/A   Mostly Cloudy
9:53 PM 84.0 °F 91.2 °F 73.9 °F 72% 30.03 in 10.0 mi South 10.4 mph - N/A   Mostly Cloudy
10:53 PM 82.9 °F 90.2 °F 75.0 °F 77% 30.04 in 10.0 mi South 5.8 mph - N/A   Mostly Cloudy
11:53 PM 82.0 °F 89.4 °F 75.9 °F 82% 30.04 in 10.0 mi SSW 6.9 mph - N/A   Scattered Clouds